Tracking 18852 objects as of 24-Nov-2017
HD Live streaming from Space Station
objects crossing your sky now

FENGYUN 1C DEB

Track FENGYUN 1C DEB now!
10-day predictions


NORAD ID: 36180
Int'l Code: 1999-025DTD
Perigee: 689.6 km
Apogee: 1,021.8 km
Inclination: 98.4 °
Period: 101.9 minutes
Semi major axis: 7226 km
RCS: 0.0053 m2 (small)
Launch date: May 10, 1999
Source: People's Republic of China (PRC)
Launch site: Taiyaun Space Center, China (TSC)

Note: This is SATELLITE DEBRIS
aabbcc
Your satellite tracking list
Your tracking list is empty




NASA's NSSDC Master Catalog

Two Line Element Set (TLE):
1 36180U 99025DTD 17325.67987226  .00000270  00000-0  13037-3 0  9994
2 36180  98.3710 128.4195 0229846 225.5654 132.3920 14.13170397506353
Source of the keplerian elements: AFSPC